Wind_Speed
15 14 13 11 10 7 5 4 3 4 6 4 4 6 9 12 16 20 21 21 22 24 28 31 29 27 27 27 29 31 34 38 42 46 49 49 48 44 43 39 37 36 39
17 15 13 12 10 8 5 5 4 3 4 3 4 7 10 14 17 20 21 22 26 29 31 33 34 32 30 30 32 33 36 39 43 46 51 50 47 45 44 41 38 38 39
18 15 13 12 10 9 8 6 6 6 3 2 7 8 10 13 18 21 22 25 28 30 33 34 37 37 37 36 36 36 38 41 44 46 51 52 48 45 45 44 40 38 38
19 17 15 13 12 9 9 8 8 7 5 3 7 9 13 17 19 21 24 27 30 32 35 38 39 42 42 42 40 39 40 42 44 47 50 53 54 51 48 46 43 41 39
21 18 17 15 12 9 11 11 12 10 5 3 3 8 13 17 20 21 23 26 29 31 33 38 41 43 44 45 46 44 44 45 47 50 53 55 55 53 49 48 44 43 42
22 21 21 16 12 14 14 13 11 7 2 1 3 8 11 15 18 21 23 27 31 32 33 36 40 42 43 45 48 49 48 48 49 52 55 56 56 56 52 48 47 45 44
24 23 20 17 14 16 16 13 9 3 5 4 3 6 10 14 17 20 24 27 30 32 33 35 36 38 40 42 45 49 52 52 51 53 56 59 60 59 55 49 49 49 46
26 23 20 17 18 19 15 14 8 6 8 6 4 2 6 13 17 19 22 26 30 32 35 34 37 37 36 39 43 46 52 55 55 55 58 61 62 59 59 53 54 52 47
27 24 21 20 19 18 17 14 8 5 2 6 5 3 7 14 18 20 22 24 29 33 35 38 40 40 35 38 41 46 50 57 59 58 59 61 60 58 60 54 57 57 48
25 23 23 22 21 18 20 14 10 4 1 5 8 7 12 17 18 19 18 22 26 30 33 39 44 42 38 37 40 45 49 54 59 58 58 57 58 60 58 56 59 61 53
27 27 25 22 22 24 19 14 8 5 2 8 12 10 14 22 27 27 29 20 28 31 33 36 42 41 38 37 40 43 48 52 56 54 54 57 62 63 61 62 63 63 56
27 27 24 24 25 24 17 14 12 10 9 12 14 13 17 22 31 35 40 40 42 34 32 36 42 41 36 34 38 42 47 51 53 56 57 59 64 65 70 74 73 65 60
27 24 23 28 29 25 22 19 17 17 15 15 19 19 19 23 32 36 41 41 39 37 37 38 42 42 33 34 37 42 47 51 53 55 59 60 68 70 72 77 76 68 62
26 24 26 29 29 29 26 22 20 19 19 21 21 25 24 29 33 35 41 45 47 39 32 37 40 42 36 33 38 42 45 49 52 55 60 62 68 73 76 80 74 69 62
23 25 25 25 25 28 29 28 27 25 24 26 27 30 30 34 33 41 45 46 46 51 41 28 35 37 37 35 37 40 44 48 52 55 61 63 67 72 77 78 75 72 63
29 26 25 26 27 28 27 29 27 27 29 27 30 33 34 40 36 40 46 43 41 50 48 26 34 33 36 38 39 42 46 49 52 55 59 62 67 73 76 80 73 70 64
26 29 30 31 33 33 33 33 33 34 36 34 34 40 35 48 37 46 44 42 53 53 51 28 33 32 38 40 43 46 48 50 51 55 57 61 65 70 77 75 71 72 67
40 38 37 36 37 36 36 35 36 36 36 40 42 41 48 45 51 55 58 47 51 58 55 26 32 31 38 43 45 48 50 52 53 54 55 60 64 68 75 71 72 73 68
45 44 42 41 41 41 42 41 40 41 42 45 44 47 52 50 59 55 56 55 59 58 47 30 35 34 39 41 46 53 55 54 55 50 55 60 64 69 75 70 74 75 73
50 50 48 46 46 47 47 45 44 42 45 48 50 52 50 52 55 58 63 56 59 62 50 34 38 34 42 44 49 55 58 55 54 49 54 60 65 69 73 70 77 78 71
52 53 51 49 48 47 47 47 47 50 52 55 53 51 51 56 57 57 61 65 60 60 44 38 40 40 43 46 50 55 58 53 50 49 56 60 65 69 71 69 75 75 68
56 54 52 50 50 51 50 51 54 55 53 50 52 53 55 55 54 57 60 59 59 58 53 39 36 42 45 48 47 55 53 51 48 50 54 58 62 67 67 66 73 71 65
56 56 55 55 54 55 54 53 52 49 46 46 48 48 48 47 47 53 55 61 65 57 41 39 42 43 47 49 53 46 48 49 47 50 54 57 63 62 56 65 68 63 60
58 56 56 56 54 52 51 48 47 48 47 47 47 46 45 46 46 51 61 60 61 56 46 45 49 46 49 50 41 40 44 46 47 50 53 57 61 59 57 59 61 59 57
59 59 57 57 57 57 55 53 52 52 51 51 51 50 48 46 47 50 54 57 58 58 60 59 54 50 50 49 44 36 40 43 45 49 54 60 63 53 52 55 52 54 53
59 59 61 62 61 59 59 59 58 55 50 51 52 52 50 46 48 51 55 56 64 64 67 57 54 53 52 47 31 34 38 41 45 52 61 65 63 52 51 48 50 50 48
Wind_Direction
183 182 181 177 172 164 185 159 165 168 127 92 55 358 358 5 7 1 358 357 360 3 7 7 360 355 351 348 350 350 352 351 350 352 350 348 345 340 339 337 333 333 332
190 191 190 190 183 174 173 208 194 203 130 29 355 341 357 354 0 0 0 1 5 5 6 7 8 5 360 357 356 354 353 351 352 351 351 351 349 344 339 335 331 331 332
196 201 200 197 196 190 187 215 222 207 171 322 352 348 355 355 12 7 2 4 4 3 2 2 3 6 6 360 358 356 355 353 354 352 353 353 349 345 340 336 331 329 329
203 207 208 206 204 195 195 208 224 217 222 256 318 352 7 7 4 2 4 4 359 358 356 358 359 360 3 3 358 357 355 355 353 353 353 352 349 346 344 339 332 329 328
208 210 212 215 214 201 200 205 214 203 184 220 319 0 7 5 1 359 1 359 358 356 353 350 354 355 355 357 358 355 353 354 353 354 352 350 348 349 346 343 335 329 325
211 210 217 220 216 206 210 210 220 200 159 163 30 16 15 8 0 0 0 356 354 355 348 347 345 348 349 350 352 353 351 350 351 349 351 347 348 349 350 345 338 333 327
216 220 222 220 213 211 211 216 198 223 180 177 93 49 12 1 3 360 355 352 348 345 344 339 336 337 340 343 345 348 348 348 347 347 348 346 348 349 349 345 343 337 329
220 223 221 221 215 215 215 199 206 200 184 174 136 38 355 335 343 347 345 348 341 340 337 332 330 329 330 336 339 342 343 345 346 346 347 345 347 349 348 346 344 338 328
223 224 220 218 219 212 204 197 239 200 175 188 195 258 305 311 315 324 343 348 341 341 341 341 326 326 323 328 333 336 339 341 344 347 344 345 348 348 347 346 345 339 332
226 223 220 215 217 207 198 205 217 200 55 231 237 255 284 298 302 315 331 328 330 334 340 341 341 328 320 321 327 331 335 339 343 346 344 350 353 351 349 345 342 340 335
218 220 221 218 210 194 203 212 210 230 252 254 250 278 282 300 305 308 320 318 322 330 332 331 337 330 320 319 322 327 331 336 341 342 344 351 354 356 353 347 345 342 333
223 224 220 211 200 201 209 212 218 231 244 256 268 268 272 289 301 306 306 315 315 320 329 331 337 332 326 321 320 325 329 334 337 338 337 340 346 350 349 350 348 341 332
220 214 205 202 201 209 211 220 229 238 247 258 263 263 267 277 286 293 302 310 321 331 321 323 328 335 326 321 321 322 327 332 333 336 335 338 341 345 347 347 346 341 331
208 202 205 207 213 219 223 232 239 247 254 259 270 271 272 269 283 290 291 299 303 312 310 315 322 334 323 321 321 321 327 330 331 334 333 333 336 341 343 347 345 343 335
216 220 222 223 232 237 242 245 251 263 262 264 266 270 273 275 282 280 291 299 305 300 299 315 318 333 327 326 325 325 328 329 331 332 331 333 334 338 341 344 344 344 337
220 222 228 237 241 242 242 247 255 261 258 256 265 268 274 273 281 281 281 289 292 288 306 327 326 333 328 332 329 324 324 327 332 331 331 332 333 336 338 345 345 343 335
228 229 228 232 236 239 247 251 255 258 263 267 266 272 271 279 275 272 276 285 286 300 298 321 320 330 330 332 333 329 323 325 328 331 331 330 334 335 339 345 347 348 339
232 235 240 244 246 247 248 250 255 263 266 266 277 277 273 278 274 275 286 303 295 293 308 308 308 322 324 330 332 330 326 325 324 327 326 329 332 335 339 346 349 349 341
237 246 250 252 253 252 250 252 257 260 262 265 269 272 275 275 281 280 283 291 303 303 302 307 302 314 316 325 329 330 330 325 325 326 326 327 330 334 340 344 348 351 346
245 243 248 254 259 256 256 257 259 262 264 264 264 269 271 274 277 277 281 277 283 296 293 303 294 311 309 317 324 327 327 323 324 325 325 327 330 334 336 342 347 349 346
247 247 248 252 253 257 259 260 259 266 270 268 269 270 268 270 273 277 281 291 295 294 297 296 295 296 304 308 319 324 325 322 323 324 325 329 329 330 331 341 345 348 346
248 249 252 254 258 261 262 264 267 270 270 267 268 269 270 271 270 274 276 283 285 292 299 289 288 293 299 306 312 318 325 323 320 320 322 327 327 330 334 342 343 348 346
249 251 253 255 257 259 260 262 264 265 266 268 269 270 271 270 272 272 278 278 284 280 290 289 286 287 292 302 313 319 324 322 319 322 324 325 329 327 333 338 346 350 346
249 249 249 251 254 255 256 257 260 266 269 270 269 269 271 270 269 269 272 278 282 285 281 280 284 281 287 296 311 317 319 320 320 320 323 327 330 327 339 345 350 349 345
248 250 251 251 251 253 255 257 259 262 265 268 269 268 271 273 270 268 273 276 277 278 279 276 276 274 286 297 309 312 319 320 320 321 324 324 323 327 340 349 349 349 345
247 249 249 250 250 252 254 256 257 259 261 264 266 269 271 272 269 269 270 273 270 275 276 269 271 275 289 296 310 309 316 318 317 319 321 326 319 327 342 348 351 349 344
Height
5935 5937 5940 5942 5943 5944 5944 5945 5946 5947 5946 5945 5944 5942 5941 5939 5936 5933 5929 5925 5922 5918 5913 5907 5901 5895 5891 5886 5881 5876 5869 5862 5854 5847 5838 5829 5819 5811 5803 5795 5788 5782 5775
5933 5936 5938 5940 5942 5943 5944 5944 5945 5946 5945 5943 5942 5941 5940 5938 5935 5932 5928 5924 5920 5915 5911 5906 5901 5896 5890 5884 5878 5872 5866 5859 5851 5843 5834 5826 5816 5807 5799 5790 5783 5777 5770
5930 5933 5936 5938 5940 5941 5942 5943 5943 5943 5943 5942 5941 5939 5938 5936 5933 5930 5927 5923 5918 5914 5910 5905 5900 5895 5888 5881 5875 5869 5862 5855 5848 5840 5831 5822 5812 5802 5794 5786 5777 5771 5765
5928 5930 5933 5936 5938 5939 5940 5941 5941 5941 5941 5940 5940 5938 5936 5934 5932 5929 5926 5922 5918 5913 5907 5902 5898 5892 5886 5880 5873 5867 5860 5852 5845 5837 5827 5819 5809 5799 5790 5781 5771 5763 5756
5924 5927 5930 5932 5935 5937 5938 5939 5939 5938 5938 5938 5938 5936 5934 5933 5931 5928 5925 5920 5916 5910 5905 5900 5896 5890 5883 5877 5871 5864 5857 5850 5841 5833 5823 5814 5804 5795 5785 5776 5766 5758 5751
5920 5923 5925 5929 5932 5934 5934 5936 5936 5935 5935 5935 5935 5934 5933 5932 5929 5926 5922 5918 5914 5908 5903 5898 5893 5887 5882 5875 5868 5862 5854 5846 5838 5829 5820 5809 5800 5790 5781 5772 5762 5754 5744
5916 5918 5922 5925 5928 5930 5931 5933 5934 5932 5932 5932 5932 5932 5931 5930 5928 5924 5920 5916 5911 5906 5901 5896 5890 5885 5879 5872 5866 5859 5851 5844 5834 5825 5816 5805 5795 5784 5775 5766 5756 5746 5736
5911 5914 5918 5921 5923 5925 5927 5929 5931 5930 5930 5930 5929 5929 5928 5927 5925 5921 5917 5913 5908 5903 5897 5892 5887 5881 5875 5869 5862 5855 5847 5839 5830 5821 5812 5801 5791 5779 5769 5760 5750 5739 5727
5908 5911 5914 5916 5918 5921 5923 5926 5926 5927 5927 5926 5926 5926 5925 5924 5921 5918 5916 5911 5906 5901 5895 5889 5883 5877 5870 5865 5858 5850 5843 5835 5827 5818 5807 5797 5786 5776 5766 5754 5743 5731 5722
5904 5907 5909 5911 5913 5917 5919 5921 5922 5922 5923 5922 5923 5922 5921 5920 5917 5914 5910 5906 5902 5897 5892 5885 5878 5872 5865 5860 5853 5846 5839 5831 5822 5813 5802 5791 5781 5770 5759 5748 5736 5725 5714
5897 5900 5903 5906 5909 5912 5914 5916 5917 5918 5919 5919 5919 5919 5918 5915 5912 5908 5903 5901 5898 5893 5886 5879 5872 5866 5860 5854 5848 5841 5834 5826 5817 5807 5796 5787 5777 5766 5753 5740 5728 5716 5702
5892 5896 5898 5902 5904 5907 5909 5911 5913 5914 5914 5915 5915 5915 5913 5911 5907 5903 5898 5896 5892 5888 5881 5875 5868 5859 5852 5847 5842 5836 5828 5821 5812 5802 5792 5782 5771 5759 5746 5733 5720 5705 5691
5886 5890 5894 5896 5899 5902 5904 5906 5907 5908 5909 5910 5910 5910 5909 5907 5902 5898 5893 5889 5886 5881 5877 5871 5863 5854 5845 5841 5836 5830 5823 5815 5806 5796 5786 5777 5767 5755 5742 5729 5712 5695 5681
5882 5885 5888 5891 5895 5897 5899 5900 5902 5903 5904 5905 5905 5905 5903 5900 5896 5893 5886 5883 5879 5873 5870 5865 5856 5848 5842 5835 5829 5824 5817 5808 5799 5790 5781 5772 5761 5749 5737 5723 5706 5691 5676
5877 5880 5883 5887 5889 5891 5893 5895 5896 5898 5898 5898 5898 5897 5896 5893 5890 5883 5880 5875 5872 5865 5859 5854 5849 5841 5836 5829 5823 5818 5810 5802 5793 5785 5776 5767 5756 5744 5731 5717 5702 5687 5671
5869 5874 5878 5880 5882 5884 5886 5888 5890 5891 5891 5891 5890 5889 5887 5883 5879 5874 5870 5868 5862 5855 5853 5845 5842 5835 5830 5824 5817 5812 5804 5795 5788 5780 5771 5761 5750 5737 5724 5712 5697 5680 5664
5862 5865 5869 5872 5874 5876 5877 5879 5881 5882 5881 5882 5880 5878 5874 5870 5869 5862 5858 5857 5850 5851 5844 5838 5836 5830 5825 5818 5811 5806 5799 5790 5783 5775 5765 5754 5743 5732 5720 5706 5690 5674 5658
5854 5857 5860 5863 5865 5867 5869 5869 5870 5871 5870 5869 5869 5866 5863 5860 5853 5851 5850 5844 5841 5841 5837 5831 5827 5823 5818 5812 5806 5799 5793 5785 5776 5768 5758 5747 5737 5726 5714 5701 5686 5669 5653
5845 5848 5850 5853 5855 5855 5856 5858 5859 5860 5860 5860 5858 5857 5855 5850 5841 5842 5842 5839 5835 5834 5829 5824 5822 5816 5811 5804 5799 5793 5787 5778 5771 5761 5751 5741 5731 5721 5710 5697 5682 5665 5650
5830 5832 5835 5838 5841 5843 5843 5846 5846 5848 5848 5847 5844 5844 5844 5840 5838 5833 5827 5826 5823 5822 5817 5812 5812 5808 5803 5797 5791 5786 5780 5771 5763 5755 5745 5736 5727 5716 5706 5692 5677 5663 5646
5814 5817 5820 5824 5826 5828 5830 5832 5833 5834 5833 5832 5830 5831 5828 5826 5827 5824 5819 5816 5813 5810 5807 5803 5800 5800 5795 5789 5784 5778 5772 5764 5757 5749 5741 5732 5721 5711 5701 5690 5674 5659 5643
5799 5802 5805 5808 5812 5814 5816 5817 5818 5818 5817 5817 5816 5815 5813 5811 5812 5811 5810 5808 5804 5798 5798 5794 5790 5788 5786 5781 5776 5771 5765 5757 5751 5742 5733 5724 5716 5707 5697 5684 5671 5656 5642
5784 5787 5790 5793 5797 5799 5801 5802 5803 5803 5803 5802 5801 5801 5799 5798 5799 5798 5798 5793 5791 5789 5786 5787 5782 5777 5777 5771 5768 5763 5757 5751 5744 5736 5727 5720 5712 5701 5691 5681 5669 5654 5641
5770 5773 5775 5778 5782 5783 5785 5787 5788 5789 5789 5789 5787 5786 5786 5787 5787 5784 5781 5781 5778 5777 5776 5774 5770 5766 5764 5762 5759 5755 5749 5743 5738 5730 5723 5715 5707 5696 5688 5677 5664 5652 5639
5753 5756 5760 5763 5766 5768 5769 5772 5773 5775 5776 5774 5773 5773 5775 5776 5776 5774 5770 5769 5767 5765 5763 5760 5757 5755 5752 5751 5748 5745 5741 5736 5731 5723 5717 5708 5700 5690 5683 5671 5659 5650 5640
5738 5741 5744 5747 5749 5751 5753 5756 5757 5760 5761 5760 5760 5761 5763 5766 5764 5763 5762 5758 5755 5752 5750 5746 5746 5743 5741 5741 5739 5735 5732 5728 5723 5716 5709 5699 5692 5685 5677 5668 5658 5649 5639